Regional Weather Roundup
Issued by NWS Cleveland, OH

Home | Current Version | Previous Version | Graphics & Text | Print | Product List | Glossary On
Versions: 1 2 3 4 5 6 7 8 9 10 11 12 13 14 15 16 17 18 19 20 21 22 23 24 25 26 27 28 29 30 31 32 33 34 35 36 37 38 39 40 41 42 43 44 45 46 47 48 49 50
000
ASUS41 KCLE 250910
RWRCLE
OHIO REGIONAL WEATHER ROUNDUP
NATIONAL WEATHER SERVICE WILMINGTON, OH
500 AM EDT WED MAY 25 2016

NOTE: "FAIR" INDICATES FEW OR NO CLOUDS BELOW 12,000 FEET WITH NO
SIGNIFICANT WEATHER AND/OR OBSTRUCTIONS TO VISIBILITY.

OHZ001>008-015>018-024>027-034-035-043-044-251000-
   NORTHWEST OHIO

CITY           SKY/WX    TMP DP  RH WIND       PRES   REMARKS
DEFIANCE       FAIR      59  49  69 CALM      30.06R
FINDLAY        FAIR      62  47  57 S10       30.07R
TOLEDO EXPRESS FAIR      62  47  57 SW5       30.06R
TOLEDO EXEC    FAIR      62  48  60 SW6       30.07R
LIMA           FAIR      61  49  64 S8        30.09R
$$

OHZ009>014-019>023-028>033-038-089-251000-
   NORTHEAST OHIO

CITY           SKY/WX    TMP DP  RH WIND       PRES   REMARKS
CLE-HOPKINS    MOCLDY    64  46  52 SW8       30.10R
CLE-LAKEFRONT  FAIR      70  45  40 SW13G23   30.06R
CUY CO. ARPT   NOT AVBL
LORAIN-ELYRIA  FAIR      57  45  64 CALM      30.08S
ASHTABULA      FAIR      52  47  83 S6        30.08R
AKRON-CANTON   FAIR      56  48  74 S6        30.12R
WOOSTER        FAIR      54  48  80 CALM      30.12R
MANSFIELD      FAIR      59  46  62 S7        30.12R
YOUNGSTOWN     MOCLDY    60  49  66 S7        30.10R
$$

OHZ042-051>053-060>062-070>072-077>081-251000-
  SOUTHWEST OHIO

CITY           SKY/WX    TMP DP  RH WIND       PRES   REMARKS
CINC-COVINGTON CLOUDY    61  53  75 S5        30.10F
CINC-LUNKEN    MOCLDY    55  55 100 CALM      30.11S
HAMILTON       FAIR      56  53  90 E3        30.10F
DAYTON         FAIR      63  48  58 S7        30.11S
WRIGHT-PAT AFB MOCLDY    59  51  75 CALM      30.10F
DAYTON GENERAL MOCLDY    60  48  64 S6        30.10S
WILMINGTON     FAIR      61  49  64 CALM      30.12S
$$

OHZ036-037-039>041-045>050-054>059-063>069-073>076-082>088-251000-
  CENTRAL AND SOUTHEAST OHIO

CITY           SKY/WX    TMP DP  RH WIND       PRES   REMARKS
COLUMBUS       FAIR      55  52  89 CALM      30.12R
OSU AIRPORT    NOT AVBL
BOLTON FIELD   FAIR      58  51  75 S5        30.13R
RICKENBACK AFB FAIR      56  52  86 S3        30.12R
NEWARK         FAIR      52  49  89 CALM      30.12R
MARION         FAIR      54  48  80 S5        30.11R
LANCASTER      FAIR      51  49  92 S3        30.13R
ZANESVILLE     FAIR      55  51  86 CALM      30.13R
NEW PHILLY     FAIR      54  51  90 CALM      30.13R
$$




USA.gov is the U.S. government's official web portal to all federal, state and local government web resources and services.